Time,TemperatureF,DewpointF,PressureIn,WindDirection,WindDirectionDegrees,WindSpeedMPH,WindSpeedGustMPH,Humidity,HourlyPrecipIn,Conditions,Clouds,dailyrainin,SoftwareType,DateUTC
2013-02-27 00:00:00,28.7,27.7,30.22,North,8,0.0,0.0,96,0.00,,,0.12,Wunderground v.1.15,2013-02-27 05:00:00,
2013-02-27 00:01:00,28.8,27.8,30.23,North,8,0.0,0.0,96,0.00,,,0.00,Wunderground v.1.15,2013-02-27 05:01:00,
2013-02-27 00:02:00,28.8,27.8,30.23,North,8,0.0,0.0,96,0.00,,,0.00,Wunderground v.1.15,2013-02-27 05:02:00,
2013-02-27 00:05:00,28.8,27.8,30.22,North,8,0.0,0.0,96,0.00,,,0.00,Wunderground v.1.15,2013-02-27 05:05:00,
2013-02-27 00:10:00,29.0,27.7,30.22,NNE,22,0.0,1.0,95,0.00,,,0.00,Wunderground v.1.15,2013-02-27 05:10:00,
2013-02-27 00:16:00,29.3,28.0,30.23,NNE,12,0.0,1.0,95,0.00,,,0.00,Wunderground v.1.15,2013-02-27 05:16:00,
2013-02-27 00:21:00,29.3,27.8,30.23,NNE,12,0.0,0.0,94,0.00,,,0.00,Wunderground v.1.15,2013-02-27 05:21:00,
2013-02-27 00:27:00,29.3,27.8,30.23,NNE,12,0.0,0.0,94,0.00,,,0.00,Wunderground v.1.15,2013-02-27 05:27:00,
2013-02-27 00:33:00,29.2,27.7,30.23,NNE,12,0.0,0.0,94,0.00,,,0.00,Wunderground v.1.15,2013-02-27 05:33:00,
2013-02-27 00:39:00,29.3,27.8,30.23,NNE,12,0.0,1.0,94,0.00,,,0.00,Wunderground v.1.15,2013-02-27 05:39:00,
2013-02-27 00:45:00,29.4,27.9,30.23,NNE,12,0.0,0.0,94,0.00,,,0.00,Wunderground v.1.15,2013-02-27 05:45:00,
2013-02-27 00:51:00,29.6,28.1,30.22,NNE,12,0.0,0.0,94,0.00,,,0.00,Wunderground v.1.15,2013-02-27 05:51:00,
2013-02-27 00:57:00,29.6,27.8,30.23,NNE,12,0.0,0.0,93,0.00,,,0.00,Wunderground v.1.15,2013-02-27 05:57:00,
2013-02-27 01:03:00,29.4,27.6,30.22,NNE,12,0.0,0.0,93,0.00,,,0.00,Wunderground v.1.15,2013-02-27 06:03:00,
2013-02-27 01:08:00,29.4,27.9,30.22,NNE,13,0.0,0.0,94,0.00,,,0.00,Wunderground v.1.15,2013-02-27 06:08:00,
2013-02-27 01:14:00,29.6,27.8,30.22,North,11,0.0,1.0,93,0.00,,,0.00,Wunderground v.1.15,2013-02-27 06:14:00,
2013-02-27 01:19:00,29.7,27.9,30.22,North,11,0.0,1.0,93,0.00,,,0.00,Wunderground v.1.15,2013-02-27 06:19:00,
2013-02-27 01:25:00,29.9,27.9,30.22,NNE,13,0.0,2.0,92,0.00,,,0.00,Wunderground v.1.15,2013-02-27 06:25:00,
2013-02-27 01:30:00,29.8,27.8,30.21,NNE,30,0.0,0.0,92,0.00,,,0.00,Wunderground v.1.15,2013-02-27 06:30:00,
2013-02-27 01:35:00,29.8,27.8,30.21,North,9,0.0,1.0,92,0.00,,,0.00,Wunderground v.1.15,2013-02-27 06:35:00,
2013-02-27 01:40:00,29.8,27.8,30.21,NNE,12,0.0,0.0,92,0.00,,,0.00,Wunderground v.1.15,2013-02-27 06:40:00,
2013-02-27 01:46:00,29.7,27.7,30.21,NNE,15,0.0,1.0,92,0.00,,,0.00,Wunderground v.1.15,2013-02-27 06:46:00,
2013-02-27 01:51:00,29.4,27.4,30.21,NNE,16,0.0,0.0,92,0.00,,,0.00,Wunderground v.1.15,2013-02-27 06:51:00,
2013-02-27 01:57:00,29.2,27.2,30.20,North,9,0.0,1.0,92,0.00,,,0.00,Wunderground v.1.15,2013-02-27 06:57:00,
2013-02-27 02:03:00,29.3,27.3,30.20,NNE,27,1.0,1.0,92,0.00,,,0.00,Wunderground v.1.15,2013-02-27 07:03:00,
2013-02-27 02:09:00,29.3,27.3,30.19,NNE,29,1.0,2.0,92,0.00,,,0.00,Wunderground v.1.15,2013-02-27 07:09:00,
2013-02-27 02:15:00,29.2,27.2,30.19,NNE,22,1.0,1.0,92,0.00,,,0.00,Wunderground v.1.15,2013-02-27 07:15:00,
2013-02-27 02:20:00,29.5,27.5,30.18,NNE,27,1.0,2.0,92,0.00,,,0.00,Wunderground v.1.15,2013-02-27 07:20:00,
2013-02-27 02:25:00,29.7,27.7,30.18,NNE,18,2.0,3.0,92,0.00,,,0.00,Wunderground v.1.15,2013-02-27 07:25:00,
2013-02-27 02:31:00,29.8,27.5,30.18,NNE,22,1.0,1.0,91,0.00,,,0.00,Wunderground v.1.15,2013-02-27 07:31:00,
2013-02-27 02:36:00,29.8,27.5,30.17,NNE,22,1.0,1.0,91,0.00,,,0.00,Wunderground v.1.15,2013-02-27 07:36:00,
2013-02-27 02:42:00,29.7,27.7,30.17,NNE,24,1.0,1.0,92,0.00,,,0.00,Wunderground v.1.15,2013-02-27 07:42:00,
2013-02-27 02:48:00,29.7,27.7,30.17,NNE,20,0.0,1.0,92,0.00,,,0.00,Wunderground v.1.15,2013-02-27 07:48:00,
2013-02-27 02:53:00,29.8,27.8,30.17,NNE,15,0.0,1.0,92,0.00,,,0.00,Wunderground v.1.15,2013-02-27 07:53:00,
2013-02-27 02:59:00,29.9,27.9,30.17,NNE,18,1.0,1.0,92,0.00,,,0.00,Wunderground v.1.15,2013-02-27 07:59:00,
2013-02-27 03:05:00,30.1,27.8,30.17,NNE,30,1.0,1.0,91,0.00,,,0.00,Wunderground v.1.15,2013-02-27 08:05:00,
2013-02-27 03:10:00,30.2,27.9,30.18,North,9,1.0,1.0,91,0.00,,,0.00,Wunderground v.1.15,2013-02-27 08:10:00,
2013-02-27 03:16:00,30.2,27.9,30.18,NNE,13,0.0,1.0,91,0.00,,,0.00,Wunderground v.1.15,2013-02-27 08:16:00,
2013-02-27 03:22:00,30.1,27.8,30.17,NNE,17,0.0,0.0,91,0.00,,,0.00,Wunderground v.1.15,2013-02-27 08:22:00,
2013-02-27 03:27:00,30.1,27.8,30.18,North,4,0.0,1.0,91,0.00,,,0.00,Wunderground v.1.15,2013-02-27 08:27:00,
2013-02-27 03:33:00,30.2,27.9,30.18,NNW,342,0.0,0.0,91,0.00,,,0.00,Wunderground v.1.15,2013-02-27 08:33:00,
2013-02-27 03:39:00,30.3,28.0,30.17,NNE,33,0.0,1.0,91,0.00,,,0.00,Wunderground v.1.15,2013-02-27 08:39:00,
2013-02-27 03:44:00,30.3,28.0,30.17,NNE,25,1.0,1.0,91,0.00,,,0.00,Wunderground v.1.15,2013-02-27 08:44:00,
2013-02-27 03:50:00,30.5,28.2,30.17,NNE,28,1.0,1.0,91,0.00,,,0.00,Wunderground v.1.15,2013-02-27 08:50:00,
2013-02-27 03:55:00,30.7,28.1,30.18,NNE,23,1.0,1.0,90,0.00,,,0.00,Wunderground v.1.15,2013-02-27 08:55:00,
2013-02-27 04:00:00,30.8,28.2,30.17,North,9,1.0,1.0,90,0.00,,,0.00,Wunderground v.1.15,2013-02-27 09:00:00,
2013-02-27 04:05:00,30.8,28.2,30.17,North,355,1.0,3.0,90,0.00,,,0.00,Wunderground v.1.15,2013-02-27 09:05:00,
2013-02-27 04:11:00,30.9,28.3,30.17,NNE,27,1.0,1.0,90,0.00,,,0.00,Wunderground v.1.15,2013-02-27 09:11:00,
2013-02-27 04:16:00,31.0,28.4,30.17,North,8,1.0,2.0,90,0.00,,,0.00,Wunderground v.1.15,2013-02-27 09:16:00,
2013-02-27 04:21:00,31.0,28.4,30.17,NNE,25,1.0,1.0,90,0.00,,,0.00,Wunderground v.1.15,2013-02-27 09:21:00,
2013-02-27 04:27:00,31.0,28.4,30.17,NNE,26,1.0,2.0,90,0.00,,,0.00,Wunderground v.1.15,2013-02-27 09:27:00,
2013-02-27 04:32:00,31.1,28.2,30.17,NE,37,1.0,1.0,89,0.00,,,0.00,Wunderground v.1.15,2013-02-27 09:32:00,
2013-02-27 04:38:00,31.2,28.3,30.17,NE,34,1.0,2.0,89,0.00,,,0.00,Wunderground v.1.15,2013-02-27 09:38:00,
2013-02-27 04:43:00,31.2,28.3,30.17,NE,37,1.0,2.0,89,0.00,,,0.00,Wunderground v.1.15,2013-02-27 09:43:00,
2013-02-27 04:48:00,31.3,28.4,30.16,NE,36,1.0,2.0,89,0.00,,,0.00,Wunderground v.1.15,2013-02-27 09:48:00,
2013-02-27 04:53:00,31.2,28.3,30.17,NNW,344,1.0,2.0,89,0.00,,,0.00,Wunderground v.1.15,2013-02-27 09:53:00,
2013-02-27 04:58:00,31.3,28.4,30.17,NNE,26,1.0,2.0,89,0.00,,,0.00,Wunderground v.1.15,2013-02-27 09:58:00,
2013-02-27 05:04:00,31.2,28.3,30.16,NE,40,1.0,1.0,89,0.00,,,0.00,Wunderground v.1.15,2013-02-27 10:04:00,
2013-02-27 05:10:00,31.2,28.3,30.16,NE,37,1.0,1.0,89,0.00,,,0.00,Wunderground v.1.15,2013-02-27 10:10:00,
2013-02-27 05:15:00,31.1,28.5,30.16,North,356,1.0,2.0,90,0.00,,,0.00,Wunderground v.1.15,2013-02-27 10:15:00,
2013-02-27 05:21:00,31.0,28.4,30.16,NE,39,2.0,2.0,90,0.00,,,0.00,Wunderground v.1.15,2013-02-27 10:21:00,
2013-02-27 05:26:00,30.9,28.3,30.16,NNE,23,2.0,2.0,90,0.00,,,0.00,Wunderground v.1.15,2013-02-27 10:26:00,
2013-02-27 05:31:00,30.9,28.6,30.16,NNE,22,1.0,2.0,91,0.00,,,0.00,Wunderground v.1.15,2013-02-27 10:31:00,
2013-02-27 05:37:00,30.9,28.6,30.15,NNE,32,2.0,3.0,91,0.00,,,0.00,Wunderground v.1.15,2013-02-27 10:37:00,
2013-02-27 05:42:00,30.9,28.6,30.15,NNE,19,2.0,3.0,91,0.00,,,0.00,Wunderground v.1.15,2013-02-27 10:42:00,
2013-02-27 05:48:00,30.9,28.6,30.14,ENE,57,3.0,4.0,91,0.00,,,0.00,Wunderground v.1.15,2013-02-27 10:48:00,
2013-02-27 05:54:00,31.0,28.9,30.13,NNE,30,3.0,5.0,92,0.00,,,0.00,Wunderground v.1.15,2013-02-27 10:54:00,
2013-02-27 05:59:00,31.0,28.9,30.14,NNE,30,3.0,5.0,92,0.00,,,0.00,Wunderground v.1.15,2013-02-27 10:59:00,
2013-02-27 06:05:00,31.0,29.2,30.14,NE,43,2.0,4.0,93,0.00,,,0.00,Wunderground v.1.15,2013-02-27 11:05:00,
2013-02-27 06:11:00,31.0,29.2,30.14,North,4,2.0,5.0,93,0.00,,,0.00,Wunderground v.1.15,2013-02-27 11:11:00,
2013-02-27 06:17:00,31.1,29.3,30.14,NE,43,2.0,5.0,93,0.00,,,0.00,Wunderground v.1.15,2013-02-27 11:17:00,
2013-02-27 06:22:00,31.1,29.3,30.14,NE,39,2.0,2.0,93,0.00,,,0.00,Wunderground v.1.15,2013-02-27 11:22:00,
2013-02-27 06:27:00,31.1,29.6,30.14,NNE,32,2.0,4.0,94,0.00,,,0.00,Wunderground v.1.15,2013-02-27 11:27:00,
2013-02-27 06:32:00,31.2,29.7,30.13,NNE,20,2.0,5.0,94,0.00,,,0.00,Wunderground v.1.15,2013-02-27 11:32:00,
2013-02-27 06:38:00,31.2,29.7,30.13,North,9,2.0,5.0,94,0.00,,,0.00,Wunderground v.1.15,2013-02-27 11:38:00,
2013-02-27 06:43:00,31.3,30.0,30.13,NE,39,2.0,4.0,95,0.00,,,0.00,Wunderground v.1.15,2013-02-27 11:43:00,
2013-02-27 06:49:00,31.4,30.1,30.13,NE,39,3.0,4.0,95,0.00,,,0.00,Wunderground v.1.15,2013-02-27 11:49:00,
2013-02-27 06:54:00,31.5,30.2,30.13,NNE,24,3.0,6.0,95,0.00,,,0.00,Wunderground v.1.15,2013-02-27 11:54:00,
2013-02-27 06:59:00,31.6,30.3,30.12,North,349,3.0,6.0,95,0.00,,,0.00,Wunderground v.1.15,2013-02-27 11:59:00,
2013-02-27 07:05:00,31.8,30.5,30.12,NNE,30,3.0,4.0,95,0.00,,,0.00,Wunderground v.1.15,2013-02-27 12:05:00,
2013-02-27 07:11:00,32.0,30.7,30.11,NE,47,3.0,4.0,95,0.00,,,0.00,Wunderground v.1.15,2013-02-27 12:11:00,
2013-02-27 07:16:00,32.1,30.8,30.11,NNE,33,3.0,5.0,95,0.00,,,0.00,Wunderground v.1.15,2013-02-27 12:16:00,
2013-02-27 07:22:00,32.3,31.0,30.11,NNE,18,3.0,3.0,95,0.00,,,0.00,Wunderground v.1.15,2013-02-27 12:22:00,
2013-02-27 07:27:00,32.3,31.0,30.10,NNE,27,3.0,4.0,95,0.00,,,0.00,Wunderground v.1.15,2013-02-27 12:27:00,
2013-02-27 07:32:00,32.4,31.1,30.10,NNE,23,4.0,7.0,95,0.00,,,0.00,Wunderground v.1.15,2013-02-27 12:32:00,
2013-02-27 07:38:00,32.5,31.0,30.10,NNE,33,4.0,7.0,94,0.00,,,0.00,Wunderground v.1.15,2013-02-27 12:38:00,
2013-02-27 07:44:00,32.5,31.0,30.10,NNE,30,4.0,7.0,94,0.00,,,0.00,Wunderground v.1.15,2013-02-27 12:44:00,
2013-02-27 07:49:00,32.5,31.0,30.10,NE,37,4.0,7.0,94,0.00,,,0.00,Wunderground v.1.15,2013-02-27 12:49:00,
2013-02-27 07:55:00,32.5,31.0,30.10,NE,35,3.0,4.0,94,0.00,,,0.00,Wunderground v.1.15,2013-02-27 12:55:00,
2013-02-27 08:00:00,32.5,31.0,30.10,NE,50,3.0,3.0,94,0.00,,,0.00,Wunderground v.1.15,2013-02-27 13:00:00,
2013-02-27 08:06:00,32.5,31.2,30.10,NNE,18,4.0,4.0,95,0.00,,,0.00,Wunderground v.1.15,2013-02-27 13:06:00,
2013-02-27 08:11:00,32.4,31.1,30.10,NNE,19,3.0,5.0,95,0.00,,,0.00,Wunderground v.1.15,2013-02-27 13:11:00,
2013-02-27 08:16:00,32.5,31.2,30.10,NE,43,3.0,5.0,95,0.00,,,0.00,Wunderground v.1.15,2013-02-27 13:16:00,
2013-02-27 08:21:00,32.6,31.3,30.10,NNE,13,3.0,3.0,95,0.00,,,0.00,Wunderground v.1.15,2013-02-27 13:21:00,
2013-02-27 08:27:00,32.7,31.4,30.09,NW,325,4.0,8.0,95,0.00,,,0.00,Wunderground v.1.15,2013-02-27 13:27:00,
2013-02-27 08:32:00,32.9,31.4,30.09,North,9,4.0,4.0,94,0.00,,,0.00,Wunderground v.1.15,2013-02-27 13:32:00,
2013-02-27 08:38:00,33.1,31.6,30.09,NW,324,3.0,4.0,94,0.00,,,0.00,Wunderground v.1.15,2013-02-27 13:38:00,
2013-02-27 08:44:00,33.2,31.7,30.09,NE,44,4.0,6.0,94,0.00,,,0.00,Wunderground v.1.15,2013-02-27 13:44:00,
2013-02-27 08:49:00,33.3,31.8,30.08,NNE,29,3.0,6.0,94,0.00,,,0.00,Wunderground v.1.15,2013-02-27 13:49:00,
2013-02-27 08:55:00,33.5,31.7,30.08,WNW,283,3.0,9.0,93,0.00,,,0.00,Wunderground v.1.15,2013-02-27 13:55:00,
2013-02-27 09:01:00,33.7,31.9,30.08,NE,56,3.0,4.0,93,0.00,,,0.00,Wunderground v.1.15,2013-02-27 14:01:00,
2013-02-27 09:08:00,33.9,32.1,30.08,NNE,13,2.0,4.0,93,0.00,,,0.00,Wunderground v.1.15,2013-02-27 14:08:00,
2013-02-27 09:13:00,34.2,32.1,30.07,ENE,67,3.0,3.0,92,0.00,,,0.00,Wunderground v.1.15,2013-02-27 14:13:00,
2013-02-27 09:18:00,34.5,32.4,30.07,East,96,3.0,4.0,92,0.00,,,0.00,Wunderground v.1.15,2013-02-27 14:18:00,
2013-02-27 09:23:00,34.7,32.3,30.06,East,101,3.0,6.0,91,0.00,,,0.00,Wunderground v.1.15,2013-02-27 14:23:00,
2013-02-27 09:28:00,35.0,32.6,30.06,NE,51,3.0,6.0,91,0.00,,,0.00,Wunderground v.1.15,2013-02-27 14:28:00,
2013-02-27 09:34:00,35.0,32.4,30.06,NE,53,3.0,4.0,90,0.00,,,0.00,Wunderground v.1.15,2013-02-27 14:34:00,
2013-02-27 09:40:00,35.1,32.5,30.06,NNE,30,3.0,9.0,90,0.00,,,0.01,Wunderground v.1.15,2013-02-27 14:40:00,
2013-02-27 09:45:00,35.1,32.5,30.05,NE,43,3.0,9.0,90,0.00,,,0.01,Wunderground v.1.15,2013-02-27 14:45:00,
2013-02-27 09:51:00,35.1,32.5,30.05,ENE,65,3.0,3.0,90,0.00,,,0.01,Wunderground v.1.15,2013-02-27 14:51:00,
2013-02-27 09:56:00,35.2,32.3,30.05,NNE,23,3.0,6.0,89,0.00,,,0.01,Wunderground v.1.15,2013-02-27 14:56:00,
2013-02-27 10:01:00,35.4,32.5,30.05,NNE,33,3.0,4.0,89,0.00,,,0.01,Wunderground v.1.15,2013-02-27 15:01:00,
2013-02-27 10:07:00,35.4,32.5,30.04,NNE,27,3.0,5.0,89,0.00,,,0.01,Wunderground v.1.15,2013-02-27 15:07:00,
2013-02-27 10:13:00,35.5,32.3,30.04,ENE,60,3.0,5.0,88,0.00,,,0.01,Wunderground v.1.15,2013-02-27 15:13:00,
2013-02-27 10:18:00,35.7,32.5,30.04,NNE,20,3.0,5.0,88,0.00,,,0.01,Wunderground v.1.15,2013-02-27 15:18:00,
2013-02-27 10:24:00,35.8,32.6,30.04,NE,52,3.0,8.0,88,0.00,,,0.01,Wunderground v.1.15,2013-02-27 15:24:00,
2013-02-27 10:29:00,35.9,32.4,30.04,NE,47,3.0,8.0,87,0.00,,,0.01,Wunderground v.1.15,2013-02-27 15:29:00,
2013-02-27 10:35:00,36.0,32.5,30.04,ENE,74,3.0,4.0,87,0.00,,,0.01,Wunderground v.1.15,2013-02-27 15:35:00,
2013-02-27 10:41:00,36.0,32.5,30.03,NE,46,3.0,3.0,87,0.00,,,0.01,Wunderground v.1.15,2013-02-27 15:41:00,
2013-02-27 10:46:00,36.1,32.6,30.03,ENE,58,3.0,8.0,87,0.00,,,0.01,Wunderground v.1.15,2013-02-27 15:46:00,
2013-02-27 10:52:00,36.1,32.6,30.03,NE,40,3.0,5.0,87,0.00,,,0.01,Wunderground v.1.15,2013-02-27 15:52:00,
2013-02-27 10:57:00,36.1,32.6,30.03,ENE,77,3.0,5.0,87,0.00,,,0.01,Wunderground v.1.15,2013-02-27 15:57:00,
2013-02-27 11:02:00,36.2,32.7,30.02,North,355,3.0,7.0,87,0.00,,,0.01,Wunderground v.1.15,2013-02-27 16:02:00,
2013-02-27 11:08:00,36.2,32.7,30.02,ENE,63,2.0,7.0,87,0.00,,,0.01,Wunderground v.1.15,2013-02-27 16:08:00,
2013-02-27 11:13:00,36.1,32.9,30.02,East,80,3.0,4.0,88,0.00,,,0.01,Wunderground v.1.15,2013-02-27 16:13:00,
2013-02-27 11:19:00,36.0,33.1,30.02,ENE,63,3.0,4.0,89,0.00,,,0.01,Wunderground v.1.15,2013-02-27 16:19:00,
2013-02-27 11:24:00,35.9,33.3,30.02,NE,37,3.0,3.0,90,0.00,,,0.02,Wunderground v.1.15,2013-02-27 16:24:00,
2013-02-27 11:30:00,35.9,33.3,30.01,NE,39,3.0,3.0,90,0.00,,,0.02,Wunderground v.1.15,2013-02-27 16:30:00,
2013-02-27 11:36:00,35.9,33.5,30.01,North,9,3.0,4.0,91,0.00,,,0.02,Wunderground v.1.15,2013-02-27 16:36:00,
2013-02-27 11:42:00,35.8,33.4,30.00,NNE,33,4.0,9.0,91,0.00,,,0.03,Wunderground v.1.15,2013-02-27 16:42:00,
2013-02-27 11:47:00,35.7,33.3,30.00,NE,49,5.0,9.0,91,0.00,,,0.03,Wunderground v.1.15,2013-02-27 16:47:00,
2013-02-27 11:52:00,35.5,33.1,29.99,NE,48,5.0,6.0,91,0.00,,,0.03,Wunderground v.1.15,2013-02-27 16:52:00,
2013-02-27 11:58:00,35.5,33.1,29.99,NE,34,5.0,8.0,91,0.00,,,0.03,Wunderground v.1.15,2013-02-27 16:58:00,
2013-02-27 12:04:00,35.4,33.3,29.99,NE,45,4.0,7.0,92,0.00,,,0.04,Wunderground v.1.15,2013-02-27 17:04:00,
2013-02-27 12:10:00,35.4,33.3,29.98,NE,49,4.0,4.0,92,0.00,,,0.04,Wunderground v.1.15,2013-02-27 17:10:00,
2013-02-27 12:15:00,35.6,33.2,29.98,East,83,5.0,14.0,91,0.00,,,0.04,Wunderground v.1.15,2013-02-27 17:15:00,
2013-02-27 12:20:00,35.7,33.6,29.98,NE,43,5.0,5.0,92,0.00,,,0.04,Wunderground v.1.15,2013-02-27 17:20:00,
2013-02-27 12:26:00,35.7,33.6,29.98,NNE,31,3.0,5.0,92,0.00,,,0.05,Wunderground v.1.15,2013-02-27 17:26:00,
2013-02-27 12:32:00,35.6,33.8,29.98,ENE,61,3.0,5.0,93,0.00,,,0.05,Wunderground v.1.15,2013-02-27 17:32:00,
2013-02-27 12:37:00,35.7,33.9,29.97,East,101,4.0,7.0,93,0.00,,,0.05,Wunderground v.1.15,2013-02-27 17:37:00,
2013-02-27 12:43:00,35.6,33.8,29.97,NE,49,4.0,15.0,93,0.04,,,0.06,Wunderground v.1.15,2013-02-27 17:43:00,
2013-02-27 12:48:00,35.5,33.7,29.97,NE,53,5.0,15.0,93,0.04,,,0.06,Wunderground v.1.15,2013-02-27 17:48:00,
2013-02-27 12:54:00,35.3,33.5,29.97,SE,124,4.0,5.0,93,0.06,,,0.07,Wunderground v.1.15,2013-02-27 17:54:00,
2013-02-27 12:59:00,35.2,33.4,29.96,ENE,68,4.0,9.0,93,0.06,,,0.07,Wunderground v.1.15,2013-02-27 17:59:00,
2013-02-27 13:05:00,35.1,33.3,29.96,ESE,103,5.0,7.0,93,0.04,,,0.08,Wunderground v.1.15,2013-02-27 18:05:00,
2013-02-27 13:10:00,35.0,33.2,29.96,ENE,63,5.0,6.0,93,0.04,,,0.08,Wunderground v.1.15,2013-02-27 18:10:00,
2013-02-27 13:15:00,34.9,33.3,29.96,NE,50,3.0,6.0,94,0.04,,,0.08,Wunderground v.1.15,2013-02-27 18:15:00,
2013-02-27 13:21:00,34.9,33.3,29.96,South,183,3.0,8.0,94,0.04,,,0.08,Wunderground v.1.15,2013-02-27 18:21:00,
2013-02-27 13:26:00,34.8,33.0,29.96,NNE,28,6.0,16.0,93,0.00,,,0.08,Wunderground v.1.15,2013-02-27 18:26:00,
2013-02-27 13:32:00,34.6,32.8,29.95,NE,49,6.0,7.0,93,0.00,,,0.08,Wunderground v.1.15,2013-02-27 18:32:00,
2013-02-27 13:37:00,34.3,32.5,29.95,ENE,63,5.0,7.0,93,0.00,,,0.09,Wunderground v.1.15,2013-02-27 18:37:00,
2013-02-27 13:43:00,34.1,32.3,29.94,NE,52,5.0,7.0,93,0.00,,,0.09,Wunderground v.1.15,2013-02-27 18:43:00,
2013-02-27 13:48:00,33.9,32.4,29.94,NNE,29,5.0,7.0,94,0.00,,,0.09,Wunderground v.1.15,2013-02-27 18:48:00,
2013-02-27 13:54:00,33.7,32.2,29.94,East,97,5.0,7.0,94,0.00,,,0.09,Wunderground v.1.15,2013-02-27 18:54:00,
2013-02-27 14:00:00,33.5,32.2,29.93,NW,309,4.0,4.0,95,0.00,,,0.09,Wunderground v.1.15,2013-02-27 19:00:00,
2013-02-27 14:06:00,33.2,31.9,29.93,NNE,15,3.0,5.0,95,0.00,,,0.10,Wunderground v.1.15,2013-02-27 19:06:00,
2013-02-27 14:11:00,33.1,31.8,29.93,NE,54,3.0,3.0,95,0.00,,,0.10,Wunderground v.1.15,2013-02-27 19:11:00,
2013-02-27 14:17:00,32.9,31.9,29.93,East,88,3.0,5.0,96,0.00,,,0.10,Wunderground v.1.15,2013-02-27 19:17:00,
2013-02-27 14:22:00,32.8,31.8,29.92,NE,34,4.0,6.0,96,0.00,,,0.10,Wunderground v.1.15,2013-02-27 19:22:00,
2013-02-27 14:28:00,32.7,31.7,29.93,NE,51,3.0,7.0,96,0.00,,,0.10,Wunderground v.1.15,2013-02-27 19:28:00,
2013-02-27 14:34:00,32.7,31.7,29.93,ENE,60,3.0,4.0,96,0.00,,,0.10,Wunderground v.1.15,2013-02-27 19:34:00,
2013-02-27 14:39:00,32.5,31.5,29.93,ENE,72,3.0,5.0,96,0.00,,,0.10,Wunderground v.1.15,2013-02-27 19:39:00,
2013-02-27 14:44:00,32.4,31.4,29.93,NE,51,3.0,4.0,96,0.00,,,0.10,Wunderground v.1.15,2013-02-27 19:44:00,
2013-02-27 14:50:00,32.3,31.3,29.93,ENE,58,2.0,2.0,96,0.00,,,0.10,Wunderground v.1.15,2013-02-27 19:50:00,
2013-02-27 14:55:00,32.3,31.3,29.93,SE,124,2.0,2.0,96,0.00,,,0.10,Wunderground v.1.15,2013-02-27 19:55:00,
2013-02-27 15:01:00,32.1,31.1,29.92,NNE,33,2.0,2.0,96,0.00,,,0.10,Wunderground v.1.15,2013-02-27 20:01:00,
2013-02-27 15:07:00,32.1,31.1,29.92,North,8,2.0,2.0,96,0.00,,,0.10,Wunderground v.1.15,2013-02-27 20:07:00,
2013-02-27 15:13:00,32.0,31.0,29.91,NE,51,2.0,3.0,96,0.00,,,0.10,Wunderground v.1.15,2013-02-27 20:13:00,
2013-02-27 15:18:00,32.0,31.2,29.91,ENE,68,3.0,5.0,97,0.00,,,0.10,Wunderground v.1.15,2013-02-27 20:18:00,
2013-02-27 15:23:00,31.9,31.1,29.90,NNE,20,3.0,3.0,97,0.00,,,0.10,Wunderground v.1.15,2013-02-27 20:23:00,
2013-02-27 15:29:00,31.9,31.1,29.90,North,9,3.0,5.0,97,0.00,,,0.10,Wunderground v.1.15,2013-02-27 20:29:00,
2013-02-27 15:35:00,31.9,31.1,29.90,NNE,27,3.0,4.0,97,0.00,,,0.10,Wunderground v.1.15,2013-02-27 20:35:00,
2013-02-27 15:40:00,31.8,31.0,29.90,ENE,73,3.0,3.0,97,0.00,,,0.10,Wunderground v.1.15,2013-02-27 20:40:00,
2013-02-27 15:45:00,31.8,31.0,29.90,NE,37,3.0,5.0,97,0.00,,,0.10,Wunderground v.1.15,2013-02-27 20:45:00,
2013-02-27 15:50:00,31.8,31.0,29.90,ENE,63,2.0,2.0,97,0.00,,,0.10,Wunderground v.1.15,2013-02-27 20:50:00,
2013-02-27 15:56:00,31.8,31.0,29.90,North,7,2.0,6.0,97,0.00,,,0.10,Wunderground v.1.15,2013-02-27 20:56:00,
2013-02-27 16:01:00,31.8,31.0,29.90,North,9,2.0,3.0,97,0.00,,,0.10,Wunderground v.1.15,2013-02-27 21:01:00,
2013-02-27 16:07:00,31.8,31.0,29.89,NNE,29,3.0,5.0,97,0.00,,,0.10,Wunderground v.1.15,2013-02-27 21:07:00,
2013-02-27 16:13:00,31.8,31.0,29.89,NE,54,2.0,3.0,97,0.00,,,0.10,Wunderground v.1.15,2013-02-27 21:13:00,
2013-02-27 16:18:00,31.8,31.0,29.89,NNE,27,2.0,4.0,97,0.00,,,0.10,Wunderground v.1.15,2013-02-27 21:18:00,
2013-02-27 16:24:00,31.7,30.9,29.89,East,80,2.0,2.0,97,0.00,,,0.10,Wunderground v.1.15,2013-02-27 21:24:00,
2013-02-27 16:30:00,31.7,30.9,29.89,ENE,64,2.0,2.0,97,0.00,,,0.10,Wunderground v.1.15,2013-02-27 21:30:00,
2013-02-27 16:35:00,31.7,30.9,29.89,NNE,26,2.0,2.0,97,0.00,,,0.10,Wunderground v.1.15,2013-02-27 21:35:00,
2013-02-27 16:41:00,31.7,30.9,29.89,NNE,13,1.0,2.0,97,0.00,,,0.10,Wunderground v.1.15,2013-02-27 21:41:00,
2013-02-27 16:47:00,31.7,30.9,29.89,ENE,65,1.0,2.0,97,0.00,,,0.10,Wunderground v.1.15,2013-02-27 21:47:00,
2013-02-27 16:52:00,31.6,30.8,29.89,NW,321,2.0,4.0,97,0.00,,,0.10,Wunderground v.1.15,2013-02-27 21:52:00,
2013-02-27 16:57:00,31.7,30.9,29.88,NNE,20,2.0,4.0,97,0.00,,,0.10,Wunderground v.1.15,2013-02-27 21:57:00,
2013-02-27 17:03:00,31.6,30.8,29.88,NE,51,2.0,4.0,97,0.00,,,0.10,Wunderground v.1.15,2013-02-27 22:03:00,
2013-02-27 17:09:00,31.6,30.8,29.88,ENE,59,2.0,4.0,97,0.00,,,0.10,Wunderground v.1.15,2013-02-27 22:09:00,
2013-02-27 17:14:00,31.6,30.8,29.87,NNE,28,1.0,5.0,97,0.00,,,0.10,Wunderground v.1.15,2013-02-27 22:14:00,
2013-02-27 17:20:00,31.6,30.8,29.87,NE,45,1.0,2.0,97,0.00,,,0.10,Wunderground v.1.15,2013-02-27 22:20:00,
2013-02-27 17:25:00,31.6,30.8,29.87,NNE,33,2.0,3.0,97,0.00,,,0.10,Wunderground v.1.15,2013-02-27 22:25:00,
2013-02-27 17:31:00,31.6,30.8,29.87,NNE,12,2.0,2.0,97,0.00,,,0.10,Wunderground v.1.15,2013-02-27 22:31:00,
2013-02-27 17:36:00,31.6,30.8,29.87,NE,44,1.0,2.0,97,0.00,,,0.10,Wunderground v.1.15,2013-02-27 22:36:00,
2013-02-27 17:41:00,31.6,30.8,29.87,ENE,71,1.0,2.0,97,0.00,,,0.10,Wunderground v.1.15,2013-02-27 22:41:00,
2013-02-27 17:47:00,31.6,30.8,29.87,ENE,68,2.0,3.0,97,0.00,,,0.10,Wunderground v.1.15,2013-02-27 22:47:00,
2013-02-27 17:53:00,31.6,30.8,29.87,NE,39,2.0,3.0,97,0.00,,,0.10,Wunderground v.1.15,2013-02-27 22:53:00,
2013-02-27 17:58:00,31.6,30.8,29.87,NNE,33,2.0,3.0,97,0.00,,,0.10,Wunderground v.1.15,2013-02-27 22:58:00,
2013-02-27 18:03:00,31.6,30.8,29.87,North,349,2.0,3.0,97,0.00,,,0.10,Wunderground v.1.15,2013-02-27 23:03:00,
2013-02-27 18:09:00,31.5,30.7,29.87,ENE,59,2.0,4.0,97,0.00,,,0.10,Wunderground v.1.15,2013-02-27 23:09:00,
2013-02-27 18:15:00,31.5,30.7,29.86,East,90,1.0,2.0,97,0.00,,,0.10,Wunderground v.1.15,2013-02-27 23:15:00,
2013-02-27 18:21:00,31.5,30.7,29.86,ESE,102,2.0,3.0,97,0.00,,,0.10,Wunderground v.1.15,2013-02-27 23:21:00,
2013-02-27 18:27:00,31.5,30.7,29.86,NNE,33,2.0,3.0,97,0.00,,,0.10,Wunderground v.1.15,2013-02-27 23:27:00,
2013-02-27 18:32:00,31.4,30.6,29.85,NNE,23,2.0,2.0,97,0.00,,,0.10,Wunderground v.1.15,2013-02-27 23:32:00,
2013-02-27 18:38:00,31.4,30.6,29.85,East,82,0.0,2.0,97,0.00,,,0.10,Wunderground v.1.15,2013-02-27 23:38:00,
2013-02-27 18:44:00,31.4,30.6,29.84,NE,34,0.0,0.0,97,0.00,,,0.10,Wunderground v.1.15,2013-02-27 23:44:00,
2013-02-27 18:50:00,31.3,30.5,29.83,ENE,65,0.0,0.0,97,0.00,,,0.10,Wunderground v.1.15,2013-02-27 23:50:00,
2013-02-27 18:55:00,31.3,30.5,29.82,NNE,27,0.0,0.0,97,0.00,,,0.10,Wunderground v.1.15,2013-02-27 23:55:00,
2013-02-27 19:01:00,31.3,30.5,29.82,NNE,15,0.0,0.0,97,0.00,,,0.10,Wunderground v.1.15,2013-02-28 00:01:00,
2013-02-27 19:07:00,31.3,30.5,29.82,NNE,20,0.0,0.0,97,0.00,,,0.10,Wunderground v.1.15,2013-02-28 00:07:00,
2013-02-27 19:14:00,31.2,30.4,29.81,ENE,63,0.0,0.0,97,0.00,,,0.10,Wunderground v.1.15,2013-02-28 00:14:00,
2013-02-27 19:20:00,31.2,30.4,29.81,NNE,25,0.0,0.0,97,0.00,,,0.10,Wunderground v.1.15,2013-02-28 00:20:00,
2013-02-27 19:26:00,31.1,30.3,29.80,NE,44,0.0,0.0,97,0.00,,,0.10,Wunderground v.1.15,2013-02-28 00:26:00,
2013-02-27 19:31:00,31.0,30.2,29.80,NNE,14,0.0,0.0,97,0.00,,,0.10,Wunderground v.1.15,2013-02-28 00:31:00,
2013-02-27 19:37:00,31.0,30.2,29.79,NNE,25,0.0,0.0,97,0.00,,,0.10,Wunderground v.1.15,2013-02-28 00:37:00,
2013-02-27 19:42:00,31.0,30.2,29.80,NE,37,0.0,0.0,97,0.00,,,0.10,Wunderground v.1.15,2013-02-28 00:42:00,
2013-02-27 19:48:00,30.9,30.1,29.79,NE,43,0.0,0.0,97,0.00,,,0.10,Wunderground v.1.15,2013-02-28 00:48:00,
2013-02-27 19:53:00,30.9,30.1,29.79,ESE,113,0.0,0.0,97,0.00,,,0.10,Wunderground v.1.15,2013-02-28 00:53:00,
2013-02-27 19:59:00,30.9,30.1,29.78,NNE,17,0.0,0.0,97,0.00,,,0.10,Wunderground v.1.15,2013-02-28 00:59:00,
2013-02-27 20:04:00,30.9,30.1,29.78,NNE,30,0.0,0.0,97,0.00,,,0.10,Wunderground v.1.15,2013-02-28 01:04:00,
2013-02-27 20:09:00,30.9,30.1,29.78,NW,319,0.0,0.0,97,0.00,,,0.10,Wunderground v.1.15,2013-02-28 01:09:00,
2013-02-27 20:14:00,30.9,30.1,29.77,NNW,347,0.0,0.0,97,0.00,,,0.10,Wunderground v.1.15,2013-02-28 01:14:00,
2013-02-27 20:20:00,30.9,30.1,29.77,NE,41,0.0,0.0,97,0.00,,,0.10,Wunderground v.1.15,2013-02-28 01:20:00,
2013-02-27 20:25:00,30.8,30.3,29.77,NE,43,0.0,0.0,98,0.00,,,0.10,Wunderground v.1.15,2013-02-28 01:25:00,
2013-02-27 20:31:00,30.8,30.3,29.77,NNE,16,0.0,0.0,98,0.00,,,0.10,Wunderground v.1.15,2013-02-28 01:31:00,
2013-02-27 20:37:00,30.8,30.3,29.77,NE,45,0.0,0.0,98,0.00,,,0.10,Wunderground v.1.15,2013-02-28 01:37:00,
2013-02-27 20:43:00,30.8,30.3,29.76,NE,49,0.0,0.0,98,0.00,,,0.10,Wunderground v.1.15,2013-02-28 01:43:00,
2013-02-27 20:49:00,30.8,30.3,29.76,NE,54,0.0,0.0,98,0.00,,,0.10,Wunderground v.1.15,2013-02-28 01:49:00,
2013-02-27 20:55:00,30.8,30.3,29.75,NNE,32,0.0,0.0,98,0.00,,,0.10,Wunderground v.1.15,2013-02-28 01:55:00,
2013-02-27 21:00:00,30.8,30.3,29.75,ENE,71,0.0,0.0,98,0.00,,,0.10,Wunderground v.1.15,2013-02-28 02:00:00,
2013-02-27 21:05:00,30.8,30.0,29.74,ENE,61,0.0,0.0,97,0.00,,,0.10,Wunderground v.1.15,2013-02-28 02:05:00,
2013-02-27 21:10:00,30.7,30.0,29.74,NNE,26,0.0,0.0,97,0.00,,,0.10,Wunderground v.1.15,2013-02-28 02:10:00,
2013-02-27 21:15:00,30.7,30.0,29.74,NNE,32,0.0,0.0,97,0.00,,,0.10,Wunderground v.1.15,2013-02-28 02:15:00,
2013-02-27 21:21:00,30.7,30.0,29.73,NE,36,0.0,0.0,97,0.00,,,0.10,Wunderground v.1.15,2013-02-28 02:21:00,
2013-02-27 21:26:00,30.7,30.0,29.73,ENE,67,0.0,0.0,97,0.00,,,0.10,Wunderground v.1.15,2013-02-28 02:26:00,
2013-02-27 21:32:00,30.7,30.0,29.72,ENE,65,0.0,0.0,97,0.00,,,0.10,Wunderground v.1.15,2013-02-28 02:32:00,
2013-02-27 21:37:00,30.7,30.0,29.72,NE,40,0.0,0.0,97,0.00,,,0.10,Wunderground v.1.15,2013-02-28 02:37:00,
2013-02-27 21:43:00,30.7,30.0,29.72,NNE,19,0.0,0.0,97,0.00,,,0.10,Wunderground v.1.15,2013-02-28 02:43:00,
2013-02-27 21:48:00,30.7,30.0,29.72,NNE,30,0.0,0.0,97,0.00,,,0.10,Wunderground v.1.15,2013-02-28 02:48:00,
2013-02-27 21:53:00,30.7,30.0,29.72,NNE,16,0.0,0.0,97,0.00,,,0.10,Wunderground v.1.15,2013-02-28 02:53:00,
2013-02-27 21:59:00,30.7,30.2,29.72,NE,51,0.0,0.0,98,0.00,,,0.10,Wunderground v.1.15,2013-02-28 02:59:00,
2013-02-27 22:05:00,30.7,30.2,29.72,NE,35,0.0,0.0,98,0.00,,,0.10,Wunderground v.1.15,2013-02-28 03:05:00,
2013-02-27 22:10:00,30.6,30.1,29.71,NNW,338,0.0,0.0,98,0.00,,,0.10,Wunderground v.1.15,2013-02-28 03:10:00,
2013-02-27 22:16:00,30.7,30.2,29.71,NNE,31,0.0,0.0,98,0.00,,,0.10,Wunderground v.1.15,2013-02-28 03:16:00,
2013-02-27 22:21:00,30.7,30.2,29.71,NE,38,0.0,0.0,98,0.00,,,0.10,Wunderground v.1.15,2013-02-28 03:21:00,
2013-02-27 22:27:00,30.7,30.2,29.70,NNE,27,0.0,0.0,98,0.00,,,0.10,Wunderground v.1.15,2013-02-28 03:27:00,
2013-02-27 22:32:00,30.7,30.2,29.70,NNE,30,0.0,0.0,98,0.00,,,0.10,Wunderground v.1.15,2013-02-28 03:32:00,
2013-02-27 22:38:00,30.7,30.2,29.70,NNE,25,0.0,0.0,98,0.00,,,0.10,Wunderground v.1.15,2013-02-28 03:38:00,
2013-02-27 22:43:00,30.7,30.2,29.69,ENE,61,0.0,0.0,98,0.00,,,0.10,Wunderground v.1.15,2013-02-28 03:43:00,
2013-02-27 22:49:00,30.7,30.2,29.69,NNE,19,0.0,0.0,98,0.00,,,0.10,Wunderground v.1.15,2013-02-28 03:49:00,
2013-02-27 22:55:00,30.7,30.2,29.69,NNE,29,0.0,0.0,98,0.00,,,0.10,Wunderground v.1.15,2013-02-28 03:55:00,
2013-02-27 23:01:00,30.8,30.3,29.68,NE,44,0.0,0.0,98,0.00,,,0.10,Wunderground v.1.15,2013-02-28 04:01:00,
2013-02-27 23:07:00,30.8,30.3,29.68,NE,42,0.0,0.0,98,0.00,,,0.10,Wunderground v.1.15,2013-02-28 04:07:00,
2013-02-27 23:12:00,30.8,30.3,29.67,NE,48,0.0,0.0,98,0.00,,,0.10,Wunderground v.1.15,2013-02-28 04:12:00,
2013-02-27 23:18:00,30.8,30.3,29.67,NNE,33,0.0,0.0,98,0.00,,,0.10,Wunderground v.1.15,2013-02-28 04:18:00,
2013-02-27 23:23:00,30.9,30.4,29.67,NNE,24,0.0,0.0,98,0.00,,,0.10,Wunderground v.1.15,2013-02-28 04:23:00,
2013-02-27 23:29:00,31.0,30.5,29.67,ENE,73,0.0,0.0,98,0.00,,,0.10,Wunderground v.1.15,2013-02-28 04:29:00,
2013-02-27 23:35:00,31.2,30.7,29.67,NNE,27,0.0,0.0,98,0.00,,,0.10,Wunderground v.1.15,2013-02-28 04:35:00,
2013-02-27 23:40:00,31.3,30.8,29.66,SSE,165,0.0,0.0,98,0.00,,,0.10,Wunderground v.1.15,2013-02-28 04:40:00,
2013-02-27 23:46:00,31.4,30.9,29.66,NE,38,0.0,0.0,98,0.00,,,0.10,Wunderground v.1.15,2013-02-28 04:46:00,
2013-02-27 23:52:00,31.4,30.9,29.65,NNE,13,0.0,0.0,98,0.00,,,0.10,Wunderground v.1.15,2013-02-28 04:52:00,
2013-02-27 23:57:00,31.5,31.0,29.65,NE,54,0.0,0.0,98,0.00,,,0.10,Wunderground v.1.15,2013-02-28 04:57:00,